EW2327 Weather Reports


Display with metric or nautical units.
time (UTC)temp
F
wind
direction
speed
MPH
gust
MPH
rain 1hr
in
rain 24hr
in
rain mn
in
humidity
%
barometer
mb
20181215083103 44 5 0.0 2.0 0.00 0.00 0.00 51 1022.4
20181215081628 45 273 0.0 2.0 0.00 0.00 0.00 51 1022.3
20181215080050 45 307 0.0 3.0 0.00 0.00 0.00 51 1022.2
20181215074551 46 315 0.0 4.0 0.00 0.00 0.00 51 1022.0
20181215073100 46 329 0.0 8.0 0.00 0.00 0.00 51 1021.9
20181215071655 47 304 0.0 3.0 0.00 0.00 0.00 51 1021.9
20181215070047 47 317 0.0 3.0 0.00 0.00 0.00 51 1022.0
20181215064553 48 321 0.0 3.0 0.00 0.00 0.00 51 1022.1
20181215063037 48 5 0.0 8.0 0.00 0.00 0.00 50 1022.0
20181215061530 49 51 1.0 6.0 0.00 0.00 0.00 51 1022.1
20181215060057 49 325 0.0 6.0 0.00 0.00 0.00 52 1022.0
20181215054549 49 24 1.0 6.0 0.00 0.00 0.00 53 1022.0
20181215053027 48 282 1.0 8.0 0.00 0.00 0.00 53 1021.7
20181215051545 48 19 0.0 5.0 0.00 0.00 0.00 55 1021.6
20181215050045 49 39 1.0 9.0 0.00 0.00 0.00 55 1021.5
20181215044517 49 318 1.0 9.0 0.00 0.00 0.00 56 1021.3
20181215043016 49 113 0.0 5.0 0.00 0.00 0.00 57 1021.5
20181215041534 49 313 1.0 8.0 0.00 0.00 0.00 58 1021.3
20181215040019 49 309 1.0 6.0 0.00 0.00 0.00 59 1021.3
20181215034511 49 301 1.0 9.0 0.00 0.00 0.00 61 1021.3
20181215033014 49 162 2.0 8.0 0.00 0.00 0.00 62 1021.0
20181215031510 49 323 1.0 4.0 0.00 0.00 0.00 63 1021.2
20181215030007 49 15 1.0 8.0 0.00 0.00 0.00 64 1021.1
20181215024517 49 308 1.0 5.0 0.00 0.00 0.00 65 1020.9
20181215023006 49 19 0.0 6.0 0.00 0.00 0.00 65 1020.7
20181215021504 50 335 2.0 8.0 0.00 0.00 0.00 65 1020.4
20181215020026 50 317 1.0 5.0 0.00 0.00 0.00 65 1020.5
20181215014506 50 337 2.0 9.0 0.00 0.00 0.00 66 1021.1
20181215013001 50 336 1.0 7.0 0.00 0.00 0.00 67 1021.0
20181215011704 50 65 1.0 9.0 0.00 0.00 0.00 68 1020.7
20181215010140 50 272 1.0 9.0 0.00 0.00 0.00 68 1020.8
20181215004750 50 355 0.0 5.0 0.00 0.00 0.00 69 1020.7
20181215004527 50 20 1.0 4.0 0.00 0.00 0.00 69 1020.7
20181215003122 50 221 1.0 9.0 0.00 0.00 0.00 69 1020.5
20181215001636 50 336 1.0 9.0 0.00 0.00 0.00 70 1020.3
20181215000157 50 329 2.0 8.0 0.00 0.00 0.00 70 1020.0
20181214234649 50 244 0.0 5.0 0.00 0.00 0.00 71 1020.1
20181214233213 50 75 1.0 6.0 0.00 0.00 0.00 71 1020.1
20181214231712 50 355 2.0 9.0 0.00 0.00 0.00 71 1020.0
20181214230110 50 298 1.0 6.0 0.00 0.00 0.00 71 1019.8
20181214224740 50 290 4.0 13.0 0.00 0.00 0.00 71 1019.4
20181214223100 50 311 3.0 11.0 0.00 0.00 0.00 72 1019.0
20181214221610 51 320 2.0 9.0 0.00 0.00 0.00 72 1018.5
20181214220056 50 313 3.0 18.0 0.00 0.00 0.00 73 1018.6
20181214214558 50 343 4.0 14.0 0.00 0.00 0.00 73 1018.5
20181214213110 49 300 3.0 10.0 0.00 0.00 0.00 74 1018.4
20181214211604 49 53 3.0 9.0 0.00 0.00 0.00 74 1018.3
20181214210043 48 5 3.0 9.0 0.00 0.00 0.00 74 1018.3
20181214204600 48 72 4.0 10.0 0.00 0.00 0.00 74 1018.1
20181214203049 47 290 1.0 10.0 0.00 0.00 0.00 75 1018.2
20181214201541 47 273 3.0 10.0 0.00 0.00 0.00 75 1018.1
20181214200034 46 194 2.0 10.0 0.00 0.00 0.00 77 1017.9
20181214194532 45 273 2.0 12.0 0.00 0.00 0.00 77 1017.9
20181214193028 45 248 4.0 10.0 0.00 0.00 0.00 78 1018.0
20181214191524 45 269 4.0 9.0 0.00 0.00 0.00 78 1018.2
20181214190031 45 342 1.0 6.0 0.00 0.00 0.00 79 1018.3
20181214184526 44 261 2.0 10.0 0.00 0.00 0.00 78 1018.3
20181214183057 44 317 1.0 11.0 0.00 0.00 0.00 79 1018.5
20181214181533 44 335 1.0 10.0 0.00 0.00 0.00 79 1018.8
20181214180018 44 282 3.0 11.0 0.00 0.00 0.00 79 1018.8
20181214174543 43 325 3.0 14.0 0.00 0.00 0.00 80 1018.7
20181214173015 43 289 2.0 9.0 0.00 0.00 0.00 80 1018.6
20181214171510 43 44 2.0 11.0 0.00 0.00 0.00 81 1018.8
20181214170011 43 332 2.0 9.0 0.00 0.00 0.00 82 1018.7
20181214164530 43 325 1.0 10.0 0.00 0.00 0.00 82 1018.7
20181214163005 43 340 3.0 11.0 0.00 0.00 0.00 82 1018.5
20181214161657 42 329 3.0 10.0 0.00 0.00 0.00 82 1017.9
20181214160110 42 18 2.0 8.0 0.00 0.00 0.00 82 1017.4
20181214154654 42 35 2.0 8.0 0.00 0.00 0.00 82 1017.2
20181214153145 41 234 3.0 14.0 0.00 0.00 0.00 83 1017.2
20181214151637 41 36 1.0 9.0 0.00 0.00 0.00 83 1017.1
20181214150136 40 257 1.0 10.0 0.00 0.00 0.00 83 1017.0
20181214144650 40 260 1.0 9.0 0.00 0.01 0.00 83 1016.9
20181214143109 40 287 1.0 12.0 0.00 0.01 0.00 83 1016.8
20181214141621 40 81 2.0 9.0 0.00 0.01 0.00 83 1016.6
20181214140100 39 109 1.0 11.0 0.00 0.01 0.00 83 1016.3
20181214134636 39 267 1.0 8.0 0.00 0.01 0.00 83 1016.1
20181214133055 39 127 3.0 12.0 0.00 0.01 0.00 83 1015.8
20181214131554 39 77 1.0 12.0 0.00 0.01 0.00 83 1015.8
20181214130056 39 290 1.0 13.0 0.00 0.01 0.00 82 1015.7
20181214124549 39 300 2.0 9.0 0.00 0.01 0.00 82 1015.7
20181214123053 39 171 2.0 9.0 0.00 0.01 0.00 82 1015.4
20181214121600 39 94 3.0 11.0 0.00 0.01 0.00 82 1015.1
20181214120046 39 252 2.0 15.0 0.00 0.01 0.00 82 1014.9
20181214114541 39 96 0.0 15.0 0.00 0.01 0.00 81 1014.6
20181214113023 40 319 3.0 11.0 0.00 0.01 0.00 81 1014.4
20181214111537 40 296 3.0 14.0 0.00 0.01 0.00 81 1014.2
20181214110023 40 349 2.0 10.0 0.00 0.01 0.00 81 1014.1
20181214104540 40 307 3.0 12.0 0.00 0.01 0.00 81 1013.8
20181214103037 40 88 3.0 13.0 0.00 0.01 0.00 81 1013.7
20181214101512 40 314 3.0 11.0 0.00 0.01 0.00 81 1013.4
20181214100011 40 290 2.0 10.0 0.00 0.01 0.00 81 1013.4
20181214094522 40 334 3.0 13.0 0.00 0.01 0.00 82 1013.3
20181214093004 40 304 2.0 18.0 0.00 0.01 0.00 82 1013.0
20181214091755 41 282 2.0 11.0 0.00 0.01 0.00 82 1012.6
20181214090127 41 326 4.0 9.0 0.00 0.01 0.00 81 1012.6
20181214084655 41 49 2.0 10.0 0.00 0.01 0.00 81 1012.5